www.pogodaiklimat.ru

Погода и климат >> Архив погоды >> Азербайджан >> Лянкяран


АРХИВ ПОГОДЫ в Лянкяране

Время (UTC), дата Ветер
(напр.,м/с)
 
Видим.   Явления Облачность Т
(С)
Тd
(С)
f
(%)
Тe
(С)
Тes
(С)
Комфортность P
(гПа)
Po
(гПа)
Тmin
(С)
Tmax
(С)
R
(мм)
R24
(мм)
S
(см)
15 9.06 ЮВ 3 20 км 3/0
[Ac lent]
+27.1 +17.6 56 +31 +32 душно 1017.1 1018.6
18 9.06 Ю 1 4000 м 3/0
[Ac lent]
+22.8 +18.2 75 +28 +28 душно 1017.8 1019.3 +30.7
21 9.06 Ю 1 4000 м ясно +19.6 +13.7 69 +22 +22 комфорт 1017.9 1019.4
00 10.06 ЮЗ 1 4000 м ясно +18.9 +12.1 65 +21 +21 комфорт 1017.6 1019.1
03 10.06 Ю 1 20 км ясно +20.7 +12.6 60 +24 +26 комфорт 1018.4 1019.9
06 10.06 В 2 20 км 6/0
[Ac lent]
+27.4 +16.3 51 +31 +38 душно 1018.3 1019.8 +17.6
09 10.06 ЮВ 1 20 км 3/0
[Ac lent]
+28.6 +16.2 47 +32 +50 душно 1018.5 1020.0
12 10.06 Ю 3 20 км 3/0
[Ac lent]
+29.9 +16.2 44 +33 +40 душно 1016.8 1018.3
15 10.06 ЮВ 1 20 км 3/0
[Ac lent]
+26.8 +17.8 58 +31 +32 душно 1016.4 1018.2
18 10.06 ЮВ 1 4000 м ясно +22.9 +15.6 63 +27 +27 душно 1017.2 1018.7 +30.5
21 10.06 ЮВ 1 4000 м ясно +19.8 +14.5 71 +23 +23 комфорт 1016.0 1017.5
00 11.06 Ю 1 4000 м ясно +19.6 +13.7 69 +22 +22 комфорт 1013.6 1015.1
03 11.06 ЮВ 1 20 км 8/8 600 м
[Sc Ac lent]
+24.2 +18.2 69 +29 +29 душно 1014.5 1016.0
06 11.06 Ю 4 20 км 8/8 600 м
[Sc Ac lent]
+26.9 +21.4 72 +34 +36 очень
душно
1014.6 1016.1 +17.6
09 11.06 Ю 3 20 км 8/0
[Ac lent]
+29.7 +20.4 57 +36 +43 очень
душно
1014.8 1015.3
12 11.06 В 4 20 км 6/0
[Ac lent]
+28.9 +21.6 65 +37 +41 очень
душно
1012.1 1013.6
15 11.06 Ю 2 20 км 8/0
[Ac lent]
+26.4 +21.2 73 +33 +34 очень
душно
1011.8 1013.3
18 11.06 Ю 1 4000 м 10/10 600 м
[Sc]
+24.8 +21.7 83 +32 +32 очень
душно
1013.3 1014.8 +30.2
21 11.06 Ю 3 4000 м 10/10 600 м
[Sc]
+23.1 +20.3 84 +30 +30 очень
душно
1009.3 1010.8
00 12.06 Ю 1 4000 м 4/0
[Ac lent]
+23.7 +19.6 78 +29 +29 душно 1009.2 1010.7
03 12.06 З 1 20 км ясно +22.5 +19.0 81 +28 +31 душно 1008.6 1010.1
06 12.06 ЮВ 1 20 км 6/6 600 м
[Sc Ac lent]
+27.8 +22.2 72 +36 +43 очень
душно
1009.3 1010.8 +19.6
09 12.06 ЮВ 2 20 км ясно +29.2 +21.5 63 +37 +58 опасность
солнечного
удара
1008.6 1010.1
12 12.06 штиль 0 20 км 6/6 600 м
[Sc Ac lent]
+29.3 +22.2 66 +38 +44 очень
душно
1007.4 1008.9
15 12.06 Ю 2 4000 м гроза без осадков 10/10 600 м
[Sc]
+26.6 +22.5 78 +35 +35 очень
душно
1007.3 1008.8
18 12.06 С 1 4000 м {гроза, ливн. осадки} 6/6 600 м
[Sc Ac lent]
+24.4 +22.9 91 +32 +32 очень
душно
1006.3 1007.8 +30.4
21 12.06 СЗ 1 4000 м ясно +21.4 +20.4 94 +27 +27 душно 1007.2 1008.7
00 13.06 З 1 4000 м 6/6 600 м
[Sc Ac lent]
+21.5 +20.0 91 +27 +27 душно 1007.2 1008.7
03 13.06 С 1 20 км ясно +23.2 +20.8 86 +31 +33 очень
душно
1008.5 1010.0
06 13.06 С 2 20 км 3/0
[Ac lent]
+29.2 +15.9 45 +32 +43 душно 1008.9 1010.4 +21.7 1
09 13.06 С 2 20 км 3/0
[Ac lent]
+31.5 +12.9 32 +32 +48 жарко 1008.4 1009.9
12 13.06 Ю 3 20 км 6/0
[Ac lent]
+31.7 +15.7 38 +34 +39 душно 1007.0 1008.5
15 13.06 Ю 1 20 км 6/6 600 м
[Sc Ac lent]
+27.6 +18.4 57 +32 +33 очень
душно
1007.0 1008.5
18 13.06 Ю 1 4000 м 3/0
[Ac lent]
+24.3 +17.6 66 +28 +28 душно 1007.7 1009.2 +34.1
21 13.06 З 1 4000 м ясно +19.4 +16.6 84 +22 +22 комфорт 1008.2 1009.7
00 14.06 З 1 4000 м ясно +21.9 +18.7 82 +27 +27 душно 1009.0 1010.5
03 14.06 З 1 20 км 3/0
[]
+22.4 +15.8 66 +26 +28 жарко 1010.7 1012.2
06 14.06 В 1 20 км ясно +30.0 +14.1 38 +32 +48 жарко 1012.0 1013.5 +21.0
09 14.06 В 1 20 км 3/0
[Ac lent]
+33.4 +10.0 24 +33 +51 опасность
солнечного
удара
1011.8 1013.3
12 14.06 В 1 20 км 3/0
[Ac lent]
+32.2 +13.5 32 +33 +44 жарко 1011.5 1013.0
15 14.06 Ю 1 20 км 3/0
[Ac lent]
+28.7 +15.6 45 +32 +32 душно 1012.4 1013.9
18 14.06 Ю 2 4000 м ясно +23.4 +12.6 51 +26 +26 жарко 1013.9 1015.4 +33.8
21 14.06 Ю 1 4000 м ясно +21.3 +9.6 47 +23 +23 комфорт 1012.9 1014.4
00 15.06 ЮЗ 1 4000 м ясно +18.0 +11.0 64 +19 +19 по сезону 1012.8 1014.3
03 15.06 СЗ 1 20 км 3/0
[Ac lent]
+22.4 +14.8 62 +26 +28 жарко 1013.8 1015.3
06 15.06 С 2 20 км ясно +28.1 +17.4 52 +32 +46 душно 1013.3 1014.8 +19.4
09 15.06 В 1 20 км 8/8 600 м
[Sc Ac lent]
+26.8 +19.4 64 +32 +37 очень
душно
1013.0 1014.5
12 15.06 СВ 1 20 км 8/8 600 м
[Sc Ac lent]
+28.8 +19.4 57 +35 +37 очень
душно
1012.2 1013.7
15 15.06 В 1 20 км 4/0
[Ac lent]
+28.4 +10.7 33 +29 +30 жарко 1011.3 1012.8
18 15.06 З 1 20 км ясно +20.4 +14.3 68 +24 +24 комфорт 1011.4 1012.9 +29.3
21 15.06 ЮЗ 1 4000 м ясно +19.4 +14.5 73 +22 +22 комфорт 1010.8 1012.3
00 16.06 З 1 4000 м ясно +17.6 +14.5 82 +19 +19 по сезону 1010.1 1011.6
03 16.06 З 1 20 км 3/0
[Ac lent]
+20.5 +17.6 83 +25 +27 комфорт 1010.7 1012.2
06 16.06 С 2 20 км ясно +26.3 +20.5 70 +33 +46 очень
душно
1010.3 1011.8 +18.0
09 16.06 С 1 20 км 4/4 600 м
[Sc Ac lent]
+29.6 +20.8 59 +37 +51 опасность
солнечного
удара
1009.6 1011.1
12 16.06 Ю 2 20 км 8/8 600 м
[Sc Ac lent]
+27.6 +21.5 69 +35 +37 очень
душно
1008.0 1009.5

 

Местоположение метеостанции Лянкяран (Азербайджан): широта 38.73 долгота 48.83 высота над уровнем моря -12 м.

В архиве по умолчанию представлена погода в Лянкяране за последнюю неделю. Архивные данные за месяц целиком и за предыдущие месяцы, начиная с января 2011 года, Вы можете получить, выбрав интересующий диапазон дат из раскрывающегося списка и нажав кнопку "Ввод!".


*Определитесь, кто Вы:
робот инопланетянин человек

Внимание! Время в таблицах - всемирное. Для получения местного времени необходимо прибавить поправку, которая равна 4 ч.

Смотрите также архив погоды в соседних городах и на ближайших метеорологических станциях:

Погода в Астаре (Азербайджан) (31 км)
Погода в Ардебиле (Иран) (72 км)
Погода в Нефтечале (Азербайджан) (83 км)
Погода в Парсабаде (Иран) (129 км)
Погода в Серабе (Иран) (144 км)
Погода в Алате (Азербайджан) (146 км)
Погода в Беылагане (Азербайджан) (148 км)
Погода в Энзели (Иран) (151 км)
Погода в Ахаре (Иран) (157 км)
Погода в Миане (Иран) (173 км)

Пояснения к столбцам:

Ветер - указаны скорость ветра в м/с - средняя за 10 мин, порывы в срок и между сроками (в фигурных скобках) и направление, откуда дует ветер: С - северный, СВ - северо-восточный, В - восточный, ЮВ - юго-восточный, Ю - южный, ЮЗ - юго-западный, З - западный, СЗ - северо-западный.
Видимость - горизонтальная дальность видимости в метрах или километрах. При видимости от 1 до 10 км при отсутствии осадков обычно наблюдается дымка, при ухудшении видимости до 1 км и менее - туман. В сухую погоду видимость может ухудшаться дымом, пылью или мглою.
Явления - указаны атмосферные явления, наблюдавшиеся в срок или в последний час перед сроком; фигурными скобками обозначены явления, наблюдавшиеся между сроками (за 1-3 часа до срока); квадратными скобками обозначены град или гололедные отложения с указанием их диаметра в мм.
Облачность - указаны через наклонную черту общая и нижняя облачность в баллах и высота нижней границы облаков в метрах; квадратными скобками обозначены формы облаков: Ci - перистые, Cs - перисто-слоистые, Cc - перисто-кучевые, Ac - высококучевые, As - высокослоистые, Sc - слоисто-кучевые, Ns - слоисто-дождевые, Cu - кучевые, Cb - кучево-дождевые. Подробнее классификацию облаков см. в Атласе облаков (PDF).
T - Температура воздуха - температура, измеренная на высоте 2 м над землей.
Td - Температура точки росы - температура, при понижении до которой содержащийся в воздухе водяной пар достигнет насыщения.
f - Относительная влажность воздуха - влажноcть воздуха, измеренная на высоте 2 м над землей.
Te - Эффективная температура - температура, которую ощущает одетый по сезону человек в тени. Характеристика душности погоды. При расчете учитывается влияние влажности воздуха и скорости ветра на теплоощущения человека.
Tes - Эффективная температура на солнце - температура, которую ощущает человек, с поправкой на солнечный нагрев. Характеристика знойности погоды. Зависит от высоты солнца над горизонтом, облачности и скорости ветра. Ночью, в пасмурную погоду, а также при ветре 12 м/с и более поправка равна нулю.
P - Атмосферное давление - приведенное к уровню моря атмосферное давление.
Po - Атмосферное давление - измеренное на уровне метеостанции атмосферное давление.
Tmin - Минимальная температура - минимум температуры воздуха на высоте 2 м над землей.
Tmax - Максимальная температура - максимум температуры воздуха на высоте 2 м над землей.
R - Количество осадков - Количество выпавших осадков за период времени, мм. При наведении курсора мыши на число - период времени, за который выпало указанное количество осадков.
R24 - Количество осадков - Количество выпавших осадков за 24 часа, мм.
S - Снежный покров - Высота снежного покрова, см. При наведении курсора мыши на число - состояние снежного покрова и степень покрытия местности в баллах.